Regional Weather Roundup
Issued by NWS

Home | Current Version | Previous Version | Text Only | Print | Product List | Glossary Off
Versions: 1 2 3 4 5 6 7 8 9 10 11 12 13 14 15 16 17 18 19 20 21 22 23 24 25 26 27 28 29 30 31 32 33 34 35 36 37 38 39 40 41 42 43 44 45 46 47 48 49 50

888
ASUS43 KDTX 262001
RWRMI
MICHIGAN HOURLY REGIONAL WEATHER ROUNDUP
NATIONAL WEATHER SERVICE DETROIT/PONTIAC MI
300 PM EST SUN FEB 26 2017

NOTE: "FAIR" INDICATES FEW OR NO CLOUDS BELOW 12,000 FEET WITH NO
SIGNIFICANT WEATHER AND/OR OBSTRUCTION TO VISIBILITY.

MIZ047>049-052>055-059>063-066>070-074>076-081>083-262100-
SOUTHEAST LOWER MICHIGAN

CITY           SKY/WX    TMP DP  RH WIND       PRES   REMARKS
ADRIAN         MOSUNNY   39  20  46 SW21G29   30.02F WCI  29
ALMA           CLOUDY    37  22  52 SW15G23   29.91R WCI  28
ANN ARBOR      CLOUDY    38  19  46 S17G26    30.00F WCI  28
BAD AXE        PTSUNNY   37  17  44 SW20G29   29.90F WCI  26
CARO           CLOUDY    37  21  53 SW16G25   29.91F WCI  27
DETROIT CITY   MOSUNNY   40  18  41 SW16      30.02F WCI  31
DETROIT        PTSUNNY   40  19  43 SW18      30.03F WCI  31
FLINT          CLOUDY    37  18  46 SW16G24   29.94F WCI  28
GROSSE ILE     SUNNY     39  24  54 SW18      30.03F WCI  30
HILLSDALE      CLOUDY    37  19  48 S17G29    29.97F WCI  28
HOWELL         CLOUDY    38  16  40 S16G26    29.94F WCI  30

CITY           SKY/WX    TMP DP  RH WIND       PRES   REMARKS
JACKSON        CLOUDY    41  17  38 S22G29    29.96F
LAMBERTVILLE   MOSUNNY   43  19  38 SW14G21   30.04F
LANSING        CLOUDY    40  19  43 S14G28    29.93F WCI  32
LAPEER         PTSUNNY   38  17  41 SW20G26   29.95F WCI  29
MASON          CLOUDY    38  22  51 SW7G21    29.94F WCI  33
MONROE         MOSUNNY   41  24  50 SW15      30.03F
MT. CLEMENS    MOSUNNY   40  19  41 S20G28    29.98F WCI  31
PONTIAC        PTSUNNY   38  17  42 S17G25    29.95F WCI  28
PORT HOPE        N/A     38  18  44 SW14G24   29.87F WCI  30
PORT HURON     MOSUNNY   36  23  60 S20G26    29.99F WCI  25
TRI CITIES     CLOUDY    36  25  64 S17       29.89F WCI  26
MIDLAND        PTSUNNY   37  22  54 SW20G28   29.88F WCI  26
TROY           SUNNY     40  15  37 SW15G25   30.02F WCI  31
SAGINAW HB     PTSUNNY   37  21  52 S24       29.90F WCI  26
$$
MIZ043>046-050>051-056>058-064>065-071>073-077>080-262100-
SOUTHWEST LOWER MICHIGAN

CITY           SKY/WX    TMP DP  RH WIND       PRES   REMARKS
BATTLE CREEK   CLOUDY    40  21  46 SW23G35   29.95S WCI  30
BENTON HARBOR  SUNNY     45  18  34 SW24G36   29.95F
BIG RAPIDS     FLURRIES  34  22  61 SW24G35   29.84S WCI  22
COLDWATER      MOSUNNY   42  18  38 SW14G21   29.97F
FREMONT        CLOUDY    37  24  59 SW20G37   29.87S WCI  27
HOLLAND        MOSUNNY   41  23  48 SW26G41   29.92S
GRAND RAPIDS   PTSUNNY   39  22  50 SW21G30   29.91S WCI  29
IONIA          PTSUNNY   39  20  46 SW24G31   29.90S WCI  28
KALAMAZOO      PTSUNNY   41  20  43 SW21G32   29.95F
LUDINGTON      CLOUDY    36  27  68 SW22G30   29.83F WCI  25
MARSHALL       CLOUDY    40  20  45 S17G28    29.96S WCI  31
MOUNT PLEASANT PTSUNNY   39  22  51 SW14G26   29.87S WCI  30
MUSKEGON       PTSUNNY   39  27  62 SW21G30   29.90F WCI  29
SOUTH HAVEN    CLOUDY    43  20  40 SW21G36   29.93F
$$
MIZ016>042-262100-
NORTHERN LOWER MICHIGAN

CITY           SKY/WX    TMP DP  RH WIND       PRES   REMARKS
ALPENA         LGT SNOW  34  27  75 S16G28    29.80F WCI  24
BEAVER ISLAND  CLOUDY    32  27  81 SW20G25   29.72F WCI  20
BELLAIRE       LGT SNOW  32  29  90 SW10G18   29.78F VSB 1   WCI  24
CADILLAC       LGT SNOW  30  27  88 S13G22    29.79S VSB 1   WCI  20
CHARLEVOIX     CLOUDY    32  29  88 SW15G30   29.78F FOG     WCI  22
FRANKFORT      CLOUDY    36  27  69 SW15G24   29.79F WCI  26
GAYLORD        SNOW      31  25  78 SW18G24   29.75S VSB 1/2 WCI  19
GRAYLING       LGT SNOW  32  25  74 SW13G28   29.79F WCI  22
HARBOR SPRINGS LGT SNOW  32  27  80 SW17G29   29.74F WCI  21
HOUGHTON LAKE  CLOUDY    33  22  63 SW17G24   29.81F WCI  22
MANISTEE       CLOUDY    37  23  56 SW21G30   29.81F WCI  26
OSCODA         CLOUDY    37  19  47 SW23G30   29.84F WCI  26
PELLSTON       LGT SNOW  32  25  75 SW15G31   29.74F WCI  22
ROGERS CITY    LGT SNOW  33  27  78 SW16      29.78  WCI  22
TRAVERSE CITY  LGT SNOW  34  29  82 SW15G22   29.78F VSB 3/4 WCI  24
$$
MIZ007>008-015-262100-
EASTERN UPPER MICHIGAN

CITY           SKY/WX    TMP DP  RH WIND       PRES   REMARKS
KINROSS        SNOW      30  28  92 SW16G25   29.69F VSB 1/2 WCI  19
MACKINAC ISLAN LGT SNOW  31  27  83 SW17G26   29.72S WCI  20
NEWBERRY       CLOUDY    28  25  87 SW20G25   29.67S WCI  15
S. S. MARIE    LGT SNOW  31  26  82 SW16G28   29.68F VSB 1   WCI  20
MUNISING         N/A     33  21  61 SW13G18   29.65F WCI  24
$$
MIZ004>006-011>014-085-262100-
CENTRAL UPPER MICHIGAN

CITY           SKY/WX    TMP DP  RH WIND       PRES   REMARKS
MANISTIQUE     CLOUDY    31  24  77 SW13G18   29.69F WCI  21
ESCANABA       PTSUNNY   36  22  56 SW15G21   29.69F WCI  27
MENOMINEE      PTSUNNY   37  21  52 SW13      29.73S WCI  29
SAWYER-GWINN   CLOUDY    30  21  69 SW16G23   29.64S WCI  19
$$
MIZ001>003-009>011-084-262100-
WESTERN UPPER MICHIGAN

CITY           SKY/WX    TMP DP  RH WIND       PRES   REMARKS
IRON MOUNTAIN  CLOUDY    34  18  52 SW10G24   29.65S WCI  26
HOUGHTON       CLOUDY    30  21  69 W21G32    29.59S WCI  17
COPPER HARBOR    N/A     28  25  88 N15       29.60S WCI  16
IRONWOOD       FLURRIES  23  19  85 NW17G23   29.71R WCI   9
$$

ABBREVIATIONS USED IN REMARKS
   TC - TEMPERATURE IN CELSIUS
  WCI - WIND CHILL INDEX
   HX - HEAT INDEX
  VSB - VISIBILITY





USA.gov is the U.S. government's official web portal to all federal, state and local government web resources and services.